This demonstration page uses our WeatherBlox Daily Observations layout. Learn more.

Left ArrowRight Arrow

38.20091, -84.87328

Hourly Observations for July 2, 2017

Temp ( °F °C ) Dew Point ( °F °C ) Humidity (%) Winds ( mph kmh ) Pressure ( in mb ) Visibility ( mi km ) Precip ( " mm )
12:53 am 00:53 Clear with Mist and Fog 71 21.7 68 20 90 90 WSW 3 6 30.05 1018 6 10 0.00 0.00
1:53 am 01:53 Clear with Mist and Fog 69 20.6 67 19.4 93 93 SW 5 7 30.05 1018 4 6 0.00 0.00
2:18 am 02:18 Mostly Clear with Mist and Fog 69 20.6 66 18.9 90 90 SW 5 7 30.03 1017 3 4 0.00 0.00
2:30 am 02:30 Mostly Cloudy with Mist and Fog 70 21.1 67 19.4 90 90 WSW 3 6 30.03 1017 3 5 0.00 0.00
2:43 am 02:43 Cloudy with Mist and Fog 72 22.2 69 20.6 91 91 SW 7 11 30.03 1017 2 3 0.00 0.00
2:53 am 02:53 Cloudy with Mist and Fog 72 22.2 69 20.6 91 91 SW 6 9 30.04 1017 1 2 0.00 0.00
3:03 am 03:03 Mostly Cloudy with Mist and Fog 72 22.2 69 20.6 91 91 WSW 7 11 30.03 1017 1 1 0.00 0.00
3:35 am 03:35 Cloudy with Mist and Fog 72 22.2 69 20.6 91 91 WSW 6 9 30.03 1017 1 2 0.00 0.00
3:53 am 03:53 Cloudy with Mist and Fog 72 22.2 69 20.6 91 91 WSW 7 11 30.04 1017 2 3 0.00 0.00
4:28 am 04:28 Cloudy with Mist and Fog 72 22.2 69 20.6 91 91 WSW 5 7 30.03 1017 3 4 0.00 0.00
4:53 am 04:53 Cloudy with Mist and Fog 71 21.7 69 20.6 94 94 WSW 6 9 30.05 1018 3 4 0.00 0.00
5:26 am 05:26 Cloudy with Mist and Fog 72 22.2 69 20.6 91 91 WSW 3 6 30.06 1018 4 6 0.00 0.00
5:53 am 05:53 Cloudy with Mist and Fog 72 22.2 69 20.6 91 91 W 3 6 30.06 1018 4 6 0.00 0.00
6:53 am 06:53 Cloudy with Mist and Fog 71 21.7 68 20 90 90 SW 6 9 30.07 1018 3 5 0.00 0.00
7:11 am 07:11 Cloudy with Mist and Fog 72 22.2 68 20 87 87 WSW 5 7 30.06 1018 3 5 0.00 0.00
7:49 am 07:49 Cloudy with Mist and Fog 72 22 70 21 94 94 Calm 30.09 1019 4 6 0.00 0.00
7:53 am 07:53 Cloudy with Mist and Fog 72 22.2 69 20.6 91 91 Calm 30.09 1019 4 6 0.00 0.00
8:53 am 08:53 Cloudy 73 22.8 68 20 84 84 SSW 5 7 30.11 1020 8 13 0.00 0.00
9:01 am 09:01 Mostly Cloudy 73 22.8 68 20 84 84 SW 5 7 30.12 1020 9 14 0.00 0.00
9:53 am 09:53 Mostly Cloudy 76 24.4 68 20 77 77 SW 7 11 30.13 1020 10 16 0.00 0.00
10:02 am 10:02 Partly Cloudy 76 24.4 68 20 77 77 SSW 6 9 30.12 1020 10 16 0.00 0.00
10:53 am 10:53 Mostly Sunny 78 25.6 68 20 71 71 S 7 11 30.13 1020 10 16 0.00 0.00
11:53 am 11:53 Mostly Sunny 80 26.7 67 19.4 64 64 S 6 9 30.13 1020 10 16 0.00 0.00
12:53 pm 12:53 Mostly Sunny 82 27.8 65 18.3 56 56 SW 5 7 30.13 1020 10 16 0.00 0.00
1:53 pm 13:53 Mostly Cloudy 83 28.3 64 17.8 53 53 SSW 5 7 30.10 1019 10 16 0.00 0.00
2:53 pm 14:53 Partly Cloudy 84 28.9 64 17.8 51 51 SW 9 15 30.09 1019 10 16 0.00 0.00
3:53 pm 15:53 Mostly Sunny 84 28.9 64 17.8 51 51 WSW 6 9 30.07 1018 10 16 0.00 0.00
4:53 pm 16:53 Sunny 86 30 63 17.2 46 46 VRB 3 6 30.05 1018 10 16 0.00 0.00
5:53 pm 17:53 Sunny 85 29.4 63 17.2 48 48 WSW 6 9 30.05 1018 10 16 0.00 0.00
6:53 pm 18:53 Sunny 87 30.6 61 16.1 42 42 Calm 30.04 1017 10 16 0.00 0.00
7:53 pm 19:53 Sunny 84 28.9 61 16.1 46 46 Calm 30.05 1018 10 16 0.00 0.00
8:53 pm 20:53 Mostly Cloudy 79 26.1 65 18.3 62 62 SW 5 7 30.04 1017 10 16 0.00 0.00
9:53 pm 21:53 Clear 76 24.4 66 18.9 72 72 Calm 30.04 1017 10 16 0.00 0.00
10:53 pm 22:53 Mostly Cloudy 73 22.8 66 18.9 79 79 Calm 30.06 1018 10 16 0.00 0.00
11:53 pm 23:53 Mostly Clear 71 21.7 65 18.3 81 81 Calm 30.07 1018 10 16 0.00 0.00

Powered by AerisWeather